When you browse on this site, cookies collect data to enhance your experience and personalize the content and advertising you see.
Visit our Privacy Policy to learn more. By continuing to use the site, you agree to this use of cookies and data.
  • In Denmark
  • List of Countries
  • For 7 days
  • Water Temperature
  • Weather Map
  • Weather Widgets
  • user-avatar
    Login

    Hourly Weather Otoruda

    Today, 5 June, Friday

    Time Temperature Precipitation Wind Pressure Humidity
    00:00 +12°C° 0 mm 5 mps 739 mmHg 70%
    01:00 +13°C° 0 mm 5 mps 739 mmHg 72%
    02:00 +13°C° 0 mm 6 mps 738 mmHg 71%
    03:00 +13°C° 0 mm 6 mps 738 mmHg 70%
    04:00 +13°C° 0 mm 6 mps 737 mmHg 69%
    05:00 +14°C° 0 mm 6 mps 737 mmHg 72%
    06:00 +14°C° 0 mm 6 mps 737 mmHg 74%
    07:00 +15°C° 0 mm 6 mps 737 mmHg 76%
    08:00 +15°C° 0.1 mm 6 mps 737 mmHg 78%
    09:00 +16°C° 0.1 mm 5 mps 737 mmHg 80%
    10:00 +17°C° 0.1 mm 5 mps 737 mmHg 82%
    11:00 +17°C° 1.1 mm 4 mps 737 mmHg 85%
    12:00 +15°C° 1.1 mm 4 mps 737 mmHg 88%
    13:00 +14°C° 1.1 mm 4 mps 738 mmHg 92%
    14:00 +14°C° 0.2 mm 3 mps 738 mmHg 92%
    15:00 +14°C° 0.2 mm 3 mps 738 mmHg 93%
    16:00 +15°C° 0.2 mm 2 mps 739 mmHg 93%
    17:00 +14°C° 0.1 mm 3 mps 739 mmHg 93%
    18:00 +14°C° 0.1 mm 3 mps 739 mmHg 93%
    19:00 +14°C° 0.1 mm 4 mps 739 mmHg 93%
    20:00 +13°C° 0.1 mm 4 mps 739 mmHg 93%
    21:00 +12°C° 0.1 mm 4 mps 740 mmHg 94%
    22:00 +12°C° 0.1 mm 4 mps 740 mmHg 95%
    23:00 +12°C° 0 mm 5 mps 740 mmHg 94%

    Tomorrow, 6 June, Saturday

    Time Temperature Precipitation Wind Pressure Humidity
    00:00 +12°C° 0 mm 5 mps 740 mmHg 94%
    01:00 +11°C° 0 mm 6 mps 740 mmHg 93%
    02:00 +11°C° 0 mm 6 mps 740 mmHg 92%
    03:00 +10°C° 0 mm 6 mps 740 mmHg 91%
    04:00 +10°C° 0 mm 7 mps 741 mmHg 90%
    05:00 +11°C° 0 mm 7 mps 741 mmHg 84%
    06:00 +11°C° 0 mm 8 mps 742 mmHg 78%
    07:00 +11°C° 0 mm 9 mps 743 mmHg 72%
    08:00 +12°C° 0 mm 8 mps 744 mmHg 67%
    09:00 +13°C° 0 mm 8 mps 744 mmHg 62%
    10:00 +15°C° 0 mm 8 mps 745 mmHg 57%
    11:00 +16°C° 0 mm 8 mps 745 mmHg 55%
    12:00 +17°C° 0 mm 8 mps 745 mmHg 53%
    13:00 +18°C° 0 mm 7 mps 745 mmHg 50%
    14:00 +17°C° 0 mm 7 mps 745 mmHg 56%
    15:00 +17°C° 0 mm 6 mps 745 mmHg 62%
    16:00 +16°C° 0 mm 5 mps 745 mmHg 69%
    17:00 +16°C° 0 mm 5 mps 745 mmHg 71%
    18:00 +17°C° 0 mm 4 mps 746 mmHg 73%
    19:00 +15°C° 0 mm 4 mps 746 mmHg 75%
    20:00 +16°C° 0 mm 3 mps 746 mmHg 76%
    21:00 +16°C° 0 mm 3 mps 747 mmHg 78%
    22:00 +14°C° 0 mm 3 mps 747 mmHg 79%
    23:00 +15°C° 0.1 mm 2 mps 747 mmHg 82%

    Day after tomorrow, 7 June, Sunday

    Time Temperature Precipitation Wind Pressure Humidity
    00:00 +15°C° 0.1 mm 2 mps 747 mmHg 85%
    01:00 +15°C° 0.1 mm 2 mps 748 mmHg 88%
    02:00 +14°C° 0.2 mm 1 mps 748 mmHg 89%
    03:00 +14°C° 0.2 mm 1 mps 747 mmHg 90%
    04:00 +14°C° 0.2 mm 1 mps 747 mmHg 91%
    05:00 +15°C° 0 mm 1 mps 747 mmHg 88%
    06:00 +16°C° 0 mm 1 mps 747 mmHg 85%
    07:00 +17°C° 0 mm 2 mps 747 mmHg 82%
    08:00 +18°C° 0 mm 2 mps 747 mmHg 79%
    09:00 +19°C° 0 mm 2 mps 747 mmHg 75%
    10:00 +20°C° 0 mm 2 mps 747 mmHg 72%
    11:00 +19°C° 0.1 mm 3 mps 747 mmHg 76%
    12:00 +18°C° 0.1 mm 4 mps 747 mmHg 80%
    13:00 +16°C° 0.1 mm 5 mps 747 mmHg 84%
    14:00 +15°C° 0.1 mm 4 mps 748 mmHg 85%
    15:00 +16°C° 0.1 mm 3 mps 748 mmHg 86%
    16:00 +14°C° 0.1 mm 3 mps 748 mmHg 87%
    17:00 +15°C° 0 mm 2 mps 748 mmHg 88%
    18:00 +15°C° 0 mm 2 mps 748 mmHg 88%
    19:00 +15°C° 0 mm 1 mps 749 mmHg 89%
    20:00 +14°C° 0 mm 1 mps 749 mmHg 90%
    21:00 +14°C° 0 mm 1 mps 750 mmHg 92%
    22:00 +13°C° 0 mm 2 mps 750 mmHg 94%
    23:00 +12°C° 0 mm 1 mps 750 mmHg 94%

    8 June, Monday

    Time Temperature Precipitation Wind Pressure Humidity
    00:00 +12°C° 0 mm 1 mps 750 mmHg 94%
    01:00 +12°C° 0 mm 1 mps 750 mmHg 94%
    02:00 +12°C° 0 mm 2 mps 750 mmHg 94%
    03:00 +12°C° 0 mm 2 mps 750 mmHg 94%
    04:00 +12°C° 0 mm 2 mps 750 mmHg 94%
    05:00 +12°C° 0.8 mm 2 mps 750 mmHg 94%
    06:00 +12°C° 0.8 mm 3 mps 751 mmHg 94%
    07:00 +12°C° 0.8 mm 3 mps 751 mmHg 94%
    08:00 +12°C° 1.1 mm 3 mps 751 mmHg 94%
    09:00 +12°C° 1.1 mm 4 mps 751 mmHg 93%
    10:00 +13°C° 1.1 mm 4 mps 751 mmHg 93%
    11:00 +13°C° 0.9 mm 4 mps 751 mmHg 93%
    12:00 +13°C° 0.9 mm 5 mps 751 mmHg 93%
    13:00 +13°C° 0.9 mm 5 mps 751 mmHg 93%
    14:00 +14°C° 0.1 mm 5 mps 751 mmHg 90%
    15:00 +14°C° 0.1 mm 6 mps 750 mmHg 88%
    16:00 +15°C° 0.1 mm 6 mps 750 mmHg 85%
    17:00 +15°C° 0 mm 5 mps 750 mmHg 85%
    18:00 +14°C° 0 mm 5 mps 750 mmHg 86%
    19:00 +14°C° 0 mm 5 mps 750 mmHg 86%
    20:00 +13°C° 0.3 mm 5 mps 751 mmHg 88%
    21:00 +13°C° 0.3 mm 5 mps 751 mmHg 90%
    22:00 +12°C° 0.3 mm 5 mps 751 mmHg 93%
    23:00 +12°C° 0.3 mm 5 mps 751 mmHg 94%

    9 June, Tuesday

    Time Temperature Precipitation Wind Pressure Humidity
    00:00 +10°C° 0.3 mm 5 mps 750 mmHg 95%
    01:00 +11°C° 0.3 mm 4 mps 750 mmHg 96%
    02:00 +12°C° 0.5 mm 4 mps 750 mmHg 96%
    03:00 +12°C° 0.5 mm 4 mps 750 mmHg 97%
    04:00 +13°C° 0.5 mm 4 mps 750 mmHg 97%
    05:00 +13°C° 0.1 mm 4 mps 750 mmHg 96%
    06:00 +14°C° 0.1 mm 4 mps 750 mmHg 96%
    07:00 +15°C° 0.1 mm 4 mps 750 mmHg 95%
    08:00 +17°C° 0.1 mm 4 mps 750 mmHg 95%
    09:00 +17°C° 0.1 mm 3 mps 750 mmHg 94%
    10:00 +18°C° 0.1 mm 3 mps 750 mmHg 94%
    11:00 +19°C° 0.1 mm 3 mps 750 mmHg 91%
    12:00 +19°C° 0.1 mm 4 mps 750 mmHg 89%
    13:00 +20°C° 0.1 mm 4 mps 750 mmHg 87%
    14:00 +20°C° 0.1 mm 4 mps 750 mmHg 86%
    15:00 +20°C° 0.1 mm 4 mps 750 mmHg 85%
    16:00 +20°C° 0.1 mm 4 mps 750 mmHg 85%
    17:00 +20°C° 0.1 mm 4 mps 750 mmHg 87%
    18:00 +19°C° 0.1 mm 4 mps 750 mmHg 89%
    19:00 +19°C° 0.1 mm 3 mps 750 mmHg 92%
    20:00 +18°C° 0 mm 3 mps 750 mmHg 94%
    21:00 +17°C° 0 mm 3 mps 751 mmHg 96%
    22:00 +14°C° 0 mm 3 mps 751 mmHg 98%
    23:00 +14°C° 0 mm 3 mps 751 mmHg 98%

    10 June, Wednesday

    Time Temperature Precipitation Wind Pressure Humidity
    00:00 +14°C° 0 mm 3 mps 751 mmHg 98%
    01:00 +13°C° 0 mm 3 mps 751 mmHg 98%
    02:00 +13°C° 0 mm 3 mps 751 mmHg 98%
    03:00 +13°C° 0 mm 3 mps 751 mmHg 98%
    04:00 +13°C° 0 mm 3 mps 751 mmHg 98%
    05:00 +14°C° 0 mm 3 mps 751 mmHg 95%
    06:00 +16°C° 0 mm 3 mps 751 mmHg 92%
    07:00 +17°C° 0 mm 3 mps 751 mmHg 89%
    08:00 +19°C° 0 mm 3 mps 752 mmHg 84%
    09:00 +21°C° 0 mm 3 mps 752 mmHg 79%
    10:00 +24°C° 0 mm 3 mps 752 mmHg 74%
    11:00 +25°C° 0.1 mm 3 mps 752 mmHg 72%
    12:00 +26°C° 0.1 mm 4 mps 752 mmHg 69%
    13:00 +27°C° 0.1 mm 4 mps 752 mmHg 67%
    14:00 +26°C° 1.3 mm 4 mps 751 mmHg 70%
    15:00 +26°C° 1.3 mm 4 mps 751 mmHg 74%
    16:00 +25°C° 1.3 mm 5 mps 751 mmHg 78%
    17:00 +23°C° 0.4 mm 5 mps 751 mmHg 82%
    18:00 +21°C° 0.4 mm 5 mps 751 mmHg 86%
    19:00 +20°C° 0.4 mm 5 mps 751 mmHg 89%
    20:00 +19°C° 0 mm 4 mps 752 mmHg 92%
    21:00 +17°C° 0 mm 4 mps 752 mmHg 94%
    22:00 +15°C° 0 mm 4 mps 752 mmHg 96%
    23:00 +15°C° 0 mm 4 mps 752 mmHg 97%
    Show more